Tracking 18980 objects as of 22-Feb-2018
HD Live streaming from Space Station
objects crossing your sky now

HORUS

Track HORUS now!
10-day predictions
HORUS is classified as:


NORAD ID: 39397
Int'l Code: 2013-064T
Perigee: 309.7 km
Apogee: 320.8 km
Inclination: 40.5 °
Period: 90.7 minutes
Semi major axis: 6686 km
RCS: Unknown
Launch date: November 20, 2013
Source: United States (US)
Launch site: WALLOPS ISLAND (WLPIS)
aabbcc
Your satellite tracking list
Your tracking list is empty




NASA's NSSDC Master Catalog

Two Line Element Set (TLE):
1 39397U 13064T   18051.69628856 +.00092325 +00000-0 +32613-3 0  9999
2 39397 040.4843 203.1710 0008312 025.0815 335.0419 15.87926021237294
Source of the keplerian elements: AFSPC